www.pogodaiklimat.ru

Погода и климат >> Архив погоды >> Россия >> Калининградская область >> Мамоново


ПОГОДА в Мамоново

  • Прогноз погоды в Мамоново
  • Монитор погоды в Мамоново

АРХИВ ПОГОДЫ в Мамоново

Время (UTC), дата Ветер
(напр.,м/с)
 
Видим.   Явления Облачность Т
(С)
Тd
(С)
f
(%)
Тe
(С)
Тes
(С)
Комфортность P
(гПа)
Po
(гПа)
Тmin
(С)
Tmax
(С)
R
(мм)
R24
(мм)
S
(см)
09 12.02 С 4-8
{11}
4000 м слаб. ливневой дождь со снегом 10/10 300 м
[Cb cap]
+1.3 -0.3 89 -4 -4 1016.0 1013.0
12 12.02 СЗ 5-9
{11}
10 км {ливн. осадки} 10/10 300 м
[Sc]
+2.5 -1.8 73 -3 -3 1019.1 1016.1
15 12.02 СЗ 4-7
{9}
10 км 8/8 300 м
[Cu med, cong]
+2.3 -1.1 78 -2 -2 1021.8 1018.8 0.4
18 12.02 З 4-8
{9}
10 км ясно +1.1 -1.0 86 -4 -4 1024.0 1021.0 +3.3 0.4
21 12.02 З 3-5
{10}
10 км ясно +0.5 -0.9 90 -4 -4 1024.5 1021.5
00 13.02 З 3-5
{7}
10 км ясно +0.5 -1.4 87 -4 -4 1024.8 1021.8
03 13.02 ЮЗ 3-6
{7}
10 км ясно +0.3 -1.5 88 -4 -4 1022.6 1019.6 +0.2
06 13.02 ЮЗ 4-7
{8}
4000 м слаб. ливневой дождь со снегом 10/10 300 м
[Cb cap]
+0.3 -0.2 96 -5 -5 1020.4 1017.4 +0.2 0.3 <0.5
09 13.02 ЮЗ 5-9
{12}
4000 м слаб. ливневой дождь 10/10 300 м
[Cb cap]
+2.5 +2.0 96 -3 -3 1018.1 1015.1
12 13.02 З 7-12
{14}
10 км {ливн. осадки} 8/0
[Ci fib]
+6.9 +4.0 82 +2 +3 1018.6 1015.7
15 13.02 З 7-12
{15}
10 км 9/0
[Ci fib]
+5.7 +3.0 83 0 0 1020.6 1017.6 1
18 13.02 З 3-6
{11}
10 км ясно +4.0 +2.5 90 0 0 1023.8 1020.8 +7.1 0.7
21 13.02 З 3-5
{8}
4000 м дымка ясно +3.4 +2.4 93 -1 -1 1024.8 1021.8
00 14.02 З 4-7
{7}
4000 м дымка ясно +3.2 +2.1 92 -2 -2 1026.5 1023.5
03 14.02 З 4-7
{7}
4000 м дымка ясно +2.9 +2.0 94 -2 -2 1028.0 1025.0 +2.6
06 14.02 З 4-6
{11}
10 км 10/10 300 м
[Sc]
+4.1 +2.8 91 -0 -0 1029.8 1026.8 +2.6
09 14.02 СЗ 3-6
{9}
10 км 10/10 300 м
[Sc]
+5.0 +3.5 90 +1 +1 1031.0 1028.0
12 14.02 -4
{7}
300 м слаб. ливневой дождь н/о +5.2 +4.5 95 +2 +3 1032.1 1029.1
15 14.02 З 2-3
{5}
4000 м слаб. ливневой дождь 10/10 300 м
[Cb cap]
+5.5 +4.9 96 +3 +3 1031.5 1028.5 0.5
18 14.02 З 2-4
{4}
4000 м дымка {ливн. осадки} 10/10 300 м
[Sc]
+5.0 +4.6 97 +2 +2 1031.7 1028.7 +5.7 0.5
21 14.02 З 3-5
{7}
4000 м дымка 10/10 300 м
[Sc]
+5.5 +4.6 94 +2 +2 1031.2 1028.2
00 15.02 ЮЗ 3-4
{7}
10 км 8/8 300 м
[Sc]
+5.6 +3.8 88 +2 +2 1030.5 1027.5
03 15.02 СЗ 4-7
{7}
10 км 10/10 300 м
[Sc]
+3.2 +2.3 94 -2 -2 1030.6 1027.6 +3.2 0.1
06 15.02 ЮЗ 2-4
{8}
10 км 10/10 300 м
[Sc]
+3.6 +2.4 92 +1 +1 1030.2 1027.2 +3.1
09 15.02 З 2-5
{6}
4000 м дымка 10/10 300 м
[Sc]
+4.1 +3.4 95 +1 +1 1031.1 1028.1
12 15.02 З 3-4
{6}
2000 м дымка {ливн. осадки} 10/10 300 м
[Sc]
+4.6 +4.2 97 +1 +1 1031.0 1028.0
15 15.02 З 1-3
{5}
2000 м дымка 10/10 300 м
[Sc]
+4.5 +4.1 97 +3 +3 1030.4 1027.4 0.3
18 15.02 ЮЗ 2-2
{3}
2000 м дымка 10/10 300 м
[Sc]
+4.0 +3.6 97 +1 +1 1030.0 1027.0 +4.8 0.3
21 15.02 ЮЗ 3-5
{5}
1000 м дымка 10/10 300 м
[Sc]
+3.6 +3.3 98 -1 -1 1029.6 1026.6
00 16.02 Ю 2-4
{4}
1000 м дымка 10/10 300 м
[Sc]
+1.8 +1.5 98 -2 -2 1029.1 1026.1
03 16.02 Ю 2-3
{4}
2000 м дымка 10/10 300 м
[Sc]
+0.8 +0.5 98 -3 -3 1027.6 1024.6 +0.8
06 16.02 Ю 2-4
{4}
2000 м дымка ясно 0.0 -0.6 96 -4 -4 1026.7 1023.7 -0.1
09 16.02 Ю 4-6
{6}
10 км ясно +4.4 +0.9 78 0 +2 1025.7 1022.7
12 16.02 Ю 5-7
{8}
10 км ясно +10.0 +2.3 59 +7 +9 1024.0 1021.1
15 16.02 Ю 4-6
{8}
10 км ясно +9.6 +2.4 61 +7 +7 1021.4 1018.5
18 16.02 Ю 4-6
{7}
10 км ясно +6.7 +2.1 72 +3 +3 1020.6 1017.7 +11.0
21 16.02 ЮЗ 4-6
{7}
10 км ясно +7.2 +1.1 65 +4 +4 1020.4 1017.5
00 17.02 З 2-5
{6}
10 км ясно +5.1 +0.6 73 +3 +3 1020.3 1017.3
03 17.02 З 2-4
{5}
10 км 10/10 300 м
[Sc]
+5.9 +1.7 74 +4 +4 1020.2 1017.3 +5.0
06 17.02 З 3-6
{6}
10 км 10/10 300 м
[Sc]
+5.4 +3.2 86 +2 +2 1021.1 1018.1 +5.0
09 17.02 З 3-5
{7}
10 км 10/10 300 м
[Sc]
+6.2 +4.2 87 +3 +3 1022.5 1019.6
12 17.02 З 5-7
{8}
10 км 10/10 300 м
[Sc]
+6.5 +4.4 86 +2 +2 1022.9 1020.0
15 17.02 З 3-4
{8}
10 км 10/10 300 м
[Sc]
+5.7 +3.4 85 +2 +2 1023.4 1020.4
18 17.02 СЗ 1-2
{5}
4000 м дымка 10/10 300 м
[Sc]
+3.8 +3.1 95 +2 +2 1023.9 1020.9 +7.4
21 17.02 штиль 0-1
{3}
1000 м дымка 10/10 300 м
[Sc]
+3.4 +2.9 97 +2 +2 1024.0 1021.0
00 18.02 С 1-2
{2}
1000 м дымка 10/10 300 м
[Sc]
+2.7 +2.4 98 +1 +1 1024.3 1021.3
03 18.02 -2
{3}
2000 м дымка н/о +2.7 +2.4 98 +1 +1 1023.7 1020.7 +2.7
06 18.02 ЮВ 2-3
{3}
2000 м дымка 10/10 300 м
[Sc]
+2.3 +2.0 98 -1 -1 1023.9 1020.9 +2.2
09 18.02 ЮВ 2-4
{5}
2000 м дымка 10/10 300 м
[Sc]
+2.9 +2.9 100 -1 -1 1023.9 1020.9
12 18.02 ЮВ 4-5
{6}
4000 м дымка 9/9 300 м
[Sc]
+5.1 +4.0 93 +1 +1 1022.8 1019.8
15 18.02 ЮВ 3-5
{6}
10 км ясно +8.6 +3.5 70 +6 +6 1020.1 1017.2
18 18.02 ЮВ 3-5
{5}
10 км ясно +6.3 +2.9 79 +3 +3 1018.8 1015.9 +8.7
21 18.02 Ю 3-5
{6}
10 км ясно +5.1 +3.0 86 +2 +2 1017.4 1014.5
00 19.02 Ю 3-4
{6}
н/о н/о +3.6 +2.3 91 -0 -0 1016.2 1013.2
03 19.02 ЮВ 2-3
{4}
10 км ясно +2.3 +1.4 94 -1 -1 1013.6 1010.6 +2.2
06 19.02 ЮВ 2-3
{6}
10 км ясно +2.6 +0.8 88 -1 -1 1011.7 1008.7 +2.2

 

Местоположение метеостанции Мамоново (Калининградская область, Россия): широта 54.47 долгота 19.93 высота над уровнем моря 23 м.

В архиве по умолчанию представлена погода в Мамоново за последнюю неделю. Архивные данные за месяц целиком и за предыдущие месяцы, начиная с января 2011 года, Вы можете получить, выбрав интересующий диапазон дат из раскрывающегося списка и нажав кнопку "Ввод!".


*Определитесь, кто Вы:
робот инопланетянин человек

Внимание! Время в таблицах - всемирное. Для получения местного времени необходимо прибавить поправку, которая равна 2 ч.

Смотрите также архив погоды в соседних городах и на ближайших метеорологических станциях:

Погода в Балтийске (Калининградская область, Россия) (20 км)
Погода в Рыбном Порту (Калининградская область, Россия) (42 км)
Погода в Эльблонге (Польша) (47 км)
Погода в Калининграде (Калининградская область, Россия) (51 км)
Погода в Пионерском (Калининградская область, Россия) (56 км)
Погода в Хеле (Польша) (73 км)
Погода в Ольштыне (Польша) (84 км)
Погода в Железнодорожном (Калининградская область, Россия) (89 км)
Погода на Авиабазе Гдыня-Оксывье (Польша) (92 км)
Погода в Рыбачем (Калининградская область, Россия) (96 км)

Пояснения к столбцам:

Ветер - указаны скорость ветра в м/с - средняя за 10 мин, порывы в срок и между сроками (в фигурных скобках) и направление, откуда дует ветер: С - северный, СВ - северо-восточный, В - восточный, ЮВ - юго-восточный, Ю - южный, ЮЗ - юго-западный, З - западный, СЗ - северо-западный.
Видимость - горизонтальная дальность видимости в метрах или километрах. При видимости от 1 до 10 км при отсутствии осадков обычно наблюдается дымка, при ухудшении видимости до 1 км и менее - туман. В сухую погоду видимость может ухудшаться дымом, пылью или мглою.
Явления - указаны атмосферные явления, наблюдавшиеся в срок или в последний час перед сроком; фигурными скобками обозначены явления, наблюдавшиеся между сроками (за 1-3 часа до срока); квадратными скобками обозначены град или гололедные отложения с указанием их диаметра в мм.
Облачность - указаны через наклонную черту общая и нижняя облачность в баллах и высота нижней границы облаков в метрах; квадратными скобками обозначены формы облаков: Ci - перистые, Cs - перисто-слоистые, Cc - перисто-кучевые, Ac - высококучевые, As - высокослоистые, Sc - слоисто-кучевые, Ns - слоисто-дождевые, Cu - кучевые, Cb - кучево-дождевые. Подробнее классификацию облаков см. в Атласе облаков (PDF).
T - Температура воздуха - температура, измеренная на высоте 2 м над землей.
Td - Температура точки росы - температура, при понижении до которой содержащийся в воздухе водяной пар достигнет насыщения.
f - Относительная влажность воздуха - влажноcть воздуха, измеренная на высоте 2 м над землей.
Te - Эффективная температура - температура, которую ощущает одетый по сезону человек в тени. Характеристика душности погоды. При расчете учитывается влияние влажности воздуха и скорости ветра на теплоощущения человека.
Tes - Эффективная температура на солнце - температура, которую ощущает человек, с поправкой на солнечный нагрев. Характеристика знойности погоды. Зависит от высоты солнца над горизонтом, облачности и скорости ветра. Ночью, в пасмурную погоду, а также при ветре 12 м/с и более поправка равна нулю.
P - Атмосферное давление - приведенное к уровню моря атмосферное давление.
Po - Атмосферное давление - измеренное на уровне метеостанции атмосферное давление.
Tmin - Минимальная температура - минимум температуры воздуха на высоте 2 м над землей.
Tmax - Максимальная температура - максимум температуры воздуха на высоте 2 м над землей.
R - Количество осадков - Количество выпавших осадков за период времени, мм. При наведении курсора мыши на число - период времени, за который выпало указанное количество осадков.
R24 - Количество осадков - Количество выпавших осадков за 24 часа, мм.
S - Снежный покров - Высота снежного покрова, см. При наведении курсора мыши на число - состояние снежного покрова и степень покрытия местности в баллах.